Data No.,UTC Date,UTC Time,Latitude,Longitude,Course(deg),Temp(degC),Sal(psu)
21,2016/8/15,6:10:00,23-12.3000S,152-45.7400E,19,22.938,35.6963
22,2016/8/15,6:11:00,23-12.1300S,152-45.8000E,16,22.94,35.6953
23,2016/8/15,6:12:00,23-11.9500S,152-45.8600E,21,22.94,35.6949
24,2016/8/15,6:13:00,23-11.7900S,152-45.9300E,21,22.941,35.6956
25,2016/8/15,6:14:00,23-11.6200S,152-46.0000E,20,22.942,35.6967
26,2016/8/15,6:15:00,23-11.4500S,152-46.0600E,19,22.946,35.6961
27,2016/8/15,6:16:00,23-11.2800S,152-46.1200E,16,22.951,35.6951
28,2016/8/15,6:17:00,23-11.0900S,152-46.1900E,19,22.964,35.6956
29,2016/8/15,6:18:00,23-10.9300S,152-46.2500E,19,22.972,35.6944
30,2016/8/15,6:19:00,23-10.7600S,152-46.3200E,21,22.976,35.6935
31,2016/8/15,6:20:00,23-10.5900S,152-46.3900E,18,22.988,35.6932
32,2016/8/15,6:21:00,23-10.4200S,152-46.4500E,18,23.001,35.6912
33,2016/8/15,6:22:00,23-10.2500S,152-46.5100E,19,23.011,35.6915
34,2016/8/15,6:23:00,23-10.0800S,152-46.5700E,17,23.02,35.6906
35,2016/8/15,6:24:00,23-09.9100S,152-46.6300E,17,23.027,35.6907
36,2016/8/15,6:25:00,23-09.7400S,152-46.6900E,17,23.029,35.69
37,2016/8/15,6:26:00,23-09.5700S,152-46.7500E,19,23.026,35.6909
38,2016/8/15,6:27:00,23-09.4000S,152-46.8200E,19,23.026,35.6914
39,2016/8/15,6:28:00,23-09.2300S,152-46.8800E,17,23.023,35.6924
40,2016/8/15,6:29:00,23-09.0600S,152-46.9400E,18,23.022,35.6934
41,2016/8/15,6:30:00,23-08.8900S,152-47.0000E,18,23.017,35.693
42,2016/8/15,6:31:00,23-08.7200S,152-47.0700E,20,23.011,35.6939
43,2016/8/15,6:32:00,23-08.5500S,152-47.1300E,18,23.001,35.695
44,2016/8/15,6:33:00,23-08.3800S,152-47.1900E,18,22.988,35.6959
45,2016/8/15,6:34:00,23-08.2100S,152-47.2500E,17,22.975,35.6977
46,2016/8/15,6:35:00,23-08.0400S,152-47.3100E,20,22.963,35.6992
47,2016/8/15,6:36:00,23-07.8800S,152-47.3800E,17,22.963,35.7006
48,2016/8/15,6:37:00,23-07.7100S,152-47.4400E,18,22.963,35.7021
49,2016/8/15,6:38:00,23-07.5300S,152-47.5100E,19,22.954,35.7029
50,2016/8/15,6:39:00,23-07.3600S,152-47.5600E,18,22.952,35.7032
51,2016/8/15,6:40:00,23-07.1900S,152-47.6300E,18,22.942,35.7049
52,2016/8/15,6:41:00,23-07.0300S,152-47.6900E,17,22.928,35.7049
53,2016/8/15,6:42:00,23-06.8600S,152-47.7500E,19,22.92,35.7063
54,2016/8/15,6:43:00,23-06.6900S,152-47.8000E,18,22.909,35.7071
55,2016/8/15,6:44:00,23-06.5200S,152-47.8600E,18,22.896,35.709
56,2016/8/15,6:45:00,23-06.3600S,152-47.9200E,17,22.881,35.71
57,2016/8/15,6:46:00,23-06.1800S,152-47.9800E,17,22.872,35.7119
58,2016/8/15,6:47:00,23-06.0100S,152-48.0400E,15,22.864,35.7129
59,2016/8/15,6:48:00,23-05.8400S,152-48.0900E,16,22.851,35.7146
60,2016/8/15,6:49:00,23-05.6700S,152-48.1500E,19,22.837,35.7143
61,2016/8/15,6:50:00,23-05.5000S,152-48.2200E,18,22.825,35.6948
62,2016/8/15,6:51:00,23-05.3300S,152-48.2800E,18,22.825,35.7169
63,2016/8/15,6:52:00,23-05.1600S,152-48.3400E,16,22.814,35.7163
64,2016/8/15,6:53:00,23-04.9800S,152-48.4000E,18,22.813,35.7185
65,2016/8/15,6:54:00,23-04.8200S,152-48.4700E,19,22.808,35.7189
66,2016/8/15,6:55:00,23-04.6500S,152-48.5300E,21,22.808,35.7194
67,2016/8/15,6:56:00,23-04.4800S,152-48.6000E,19,22.809,35.7192
68,2016/8/15,6:57:00,23-04.3100S,152-48.6600E,18,22.805,35.7196
69,2016/8/15,6:58:00,23-04.1400S,152-48.7300E,19,22.805,35.7208
70,2016/8/15,6:59:00,23-03.9600S,152-48.8000E,19,22.802,35.7203
71,2016/8/15,7:00:00,23-03.7900S,152-48.8600E,18,22.795,35.7208
72,2016/8/15,7:01:00,23-03.6200S,152-48.9200E,20,22.774,35.7218
73,2016/8/15,7:02:00,23-03.4500S,152-48.9900E,21,22.754,35.723
74,2016/8/15,7:03:00,23-03.2900S,152-49.0500E,19,22.739,35.7242
75,2016/8/15,7:04:00,23-03.1200S,152-49.1200E,17,22.723,35.7247
76,2016/8/15,7:05:00,23-02.9500S,152-49.1700E,16,22.707,35.7274
77,2016/8/15,7:06:00,23-02.7800S,152-49.2300E,17,22.686,35.7276
78,2016/8/15,7:07:00,23-02.6200S,152-49.3000E,20,22.664,35.7304
79,2016/8/15,7:08:00,23-02.4500S,152-49.3600E,18,22.667,35.7328
80,2016/8/15,7:09:00,23-02.2800S,152-49.4200E,18,22.66,35.7339
81,2016/8/15,7:10:00,23-02.1100S,152-49.4800E,17,22.65,35.7345
82,2016/8/15,7:11:00,23-01.9400S,152-49.5400E,20,22.637,35.7353
83,2016/8/15,7:12:00,23-01.7800S,152-49.6100E,21,22.617,35.7364
84,2016/8/15,7:13:00,23-01.6100S,152-49.6800E,19,22.563,35.7375
85,2016/8/15,7:14:00,23-01.4500S,152-49.7400E,17,22.542,35.7414
86,2016/8/15,7:15:00,23-01.2800S,152-49.8000E,21,22.452,35.7463
87,2016/8/15,7:16:00,23-01.1200S,152-49.8700E,22,22.323,35.7492
88,2016/8/15,7:17:00,23-00.9500S,152-49.9500E,23,22.304,35.7658
89,2016/8/15,7:18:00,23-00.7900S,152-50.0200E,21,22.301,35.7728
90,2016/8/15,7:19:00,23-00.6200S,152-50.0900E,21,22.309,35.7718
91,2016/8/15,7:20:00,23-00.4400S,152-50.1600E,19,22.315,35.7704
92,2016/8/15,7:21:00,23-00.2700S,152-50.2300E,20,22.322,35.7688
93,2016/8/15,7:22:00,23-00.1000S,152-50.3100E,22,22.325,35.7669
94,2016/8/15,7:23:00,22-59.9400S,152-50.3800E,22,22.328,35.7672
95,2016/8/15,7:24:00,22-59.7700S,152-50.4600E,23,22.341,35.7645
96,2016/8/15,7:25:00,22-59.5900S,152-50.5400E,20,22.354,35.7636
97,2016/8/15,7:26:00,22-59.4200S,152-50.6000E,18,22.363,35.7619
98,2016/8/15,7:27:00,22-59.2400S,152-50.6600E,17,22.372,35.7608
99,2016/8/15,7:28:00,22-59.0700S,152-50.7300E,19,22.386,35.7591
100,2016/8/15,7:29:00,22-58.9000S,152-50.7900E,19,22.397,35.7556
101,2016/8/15,7:30:00,22-58.7200S,152-50.8600E,17,22.401,35.7503
102,2016/8/15,7:31:00,22-58.5500S,152-50.9200E,19,22.404,35.747
103,2016/8/15,7:32:00,22-58.3700S,152-50.9800E,18,22.407,35.7449
104,2016/8/15,7:33:00,22-58.2000S,152-51.0500E,19,22.413,35.745
105,2016/8/15,7:34:00,22-58.0200S,152-51.1200E,19,22.414,35.7419
106,2016/8/15,7:35:00,22-57.8500S,152-51.1900E,19,22.412,35.7414
107,2016/8/15,7:36:00,22-57.6700S,152-51.2500E,16,22.414,35.7393
108,2016/8/15,7:37:00,22-57.4900S,152-51.3100E,17,22.412,35.7383
109,2016/8/15,7:38:00,22-57.3200S,152-51.3700E,20,22.414,35.7365
110,2016/8/15,7:39:00,22-57.1500S,152-51.4400E,19,22.416,35.7359
111,2016/8/15,7:40:00,22-56.9700S,152-51.5000E,16,22.414,35.7342
112,2016/8/15,7:41:00,22-56.7900S,152-51.5600E,14,22.413,35.7334
113,2016/8/15,7:42:00,22-56.6100S,152-51.6100E,17,22.413,35.7338
114,2016/8/15,7:43:00,22-56.4100S,152-51.6700E,14,22.415,35.7339
115,2016/8/15,7:44:00,22-56.2300S,152-51.7300E,14,22.416,35.7342
116,2016/8/15,7:45:00,22-56.0500S,152-51.7800E,15,22.416,35.7341
117,2016/8/15,7:46:00,22-55.8700S,152-51.8300E,14,22.412,35.7343
118,2016/8/15,7:47:00,22-55.6800S,152-51.8800E,14,22.411,35.735
119,2016/8/15,7:48:00,22-55.4900S,152-51.9400E,14,22.41,35.7361
120,2016/8/15,7:49:00,22-55.3100S,152-51.9900E,13,22.409,35.7367
121,2016/8/15,7:50:00,22-55.1300S,152-52.0300E,15,22.409,35.738
122,2016/8/15,7:51:00,22-54.9400S,152-52.0900E,14,22.41,35.7371
123,2016/8/15,7:52:00,22-54.7500S,152-52.1400E,15,22.408,35.7379
124,2016/8/15,7:53:00,22-54.5700S,152-52.2000E,14,22.41,35.7368
125,2016/8/15,7:54:00,22-54.3900S,152-52.2500E,13,22.413,35.7372
126,2016/8/15,7:55:00,22-54.2000S,152-52.3000E,16,22.416,35.738
127,2016/8/15,7:56:00,22-54.0200S,152-52.3600E,18,22.418,35.7363
128,2016/8/15,7:57:00,22-53.8400S,152-52.4200E,16,22.419,35.7366
129,2016/8/15,7:58:00,22-53.6500S,152-52.4800E,14,22.418,35.7363
130,2016/8/15,7:59:00,22-53.4600S,152-52.5200E,13,22.416,35.7335
131,2016/8/15,8:00:00,22-53.2700S,152-52.5700E,14,22.416,35.735
132,2016/8/15,8:01:00,22-53.0900S,152-52.6200E,13,22.415,35.7336
133,2016/8/15,8:02:00,22-52.9000S,152-52.6700E,14,22.412,35.7332
134,2016/8/15,8:03:00,22-52.7200S,152-52.7200E,18,22.418,35.7325
135,2016/8/15,8:04:00,22-52.5200S,152-52.7900E,15,22.465,35.7328
136,2016/8/15,8:05:00,22-52.3400S,152-52.8400E,15,22.462,35.7179
137,2016/8/15,8:06:00,22-52.1600S,152-52.8900E,13,22.458,35.7132
138,2016/8/15,8:07:00,22-51.9800S,152-52.9500E,14,22.471,35.715
139,2016/8/15,8:08:00,22-51.7900S,152-53.0000E,15,22.471,35.7125
140,2016/8/15,8:09:00,22-51.6100S,152-53.0500E,12,22.47,35.7099
141,2016/8/15,8:10:00,22-51.4300S,152-53.1000E,14,22.467,35.71
142,2016/8/15,8:11:00,22-51.2400S,152-53.1600E,17,22.466,35.71
143,2016/8/15,8:12:00,22-51.0600S,152-53.2200E,16,22.47,35.7101
144,2016/8/15,8:13:00,22-50.8800S,152-53.2700E,14,22.471,35.7111
145,2016/8/15,8:14:00,22-50.6900S,152-53.3300E,13,22.475,35.712
146,2016/8/15,8:15:00,22-50.5000S,152-53.3700E,14,22.476,35.7136
147,2016/8/15,8:16:00,22-50.3200S,152-53.4300E,15,22.47,35.716
148,2016/8/15,8:17:00,22-50.1300S,152-53.4900E,15,22.465,35.7165
149,2016/8/15,8:18:00,22-49.9400S,152-53.5400E,12,22.471,35.7178
150,2016/8/15,8:19:00,22-49.7500S,152-53.5800E,14,22.476,35.7188
151,2016/8/15,8:20:00,22-49.5700S,152-53.6300E,12,22.483,35.7198
152,2016/8/15,8:21:00,22-49.3800S,152-53.6800E,13,22.492,35.7215
153,2016/8/15,8:22:00,22-49.2000S,152-53.7200E,12,22.496,35.7223
154,2016/8/15,8:23:00,22-49.0000S,152-53.7700E,14,22.499,35.7222
155,2016/8/15,8:24:00,22-48.8200S,152-53.8200E,14,22.5,35.7229
156,2016/8/15,8:25:00,22-48.6300S,152-53.8800E,15,22.498,35.7219
157,2016/8/15,8:26:00,22-48.4400S,152-53.9200E,14,22.495,35.7207
158,2016/8/15,8:27:00,22-48.2500S,152-53.9700E,12,22.493,35.7196
159,2016/8/15,8:28:00,22-48.0700S,152-54.0200E,13,22.491,35.7164
160,2016/8/15,8:29:00,22-47.8900S,152-54.0700E,15,22.487,35.7161
161,2016/8/15,8:30:00,22-47.7100S,152-54.1200E,14,22.485,35.7122
162,2016/8/15,8:31:00,22-47.5300S,152-54.1700E,13,22.481,35.7119
163,2016/8/15,8:32:00,22-47.3400S,152-54.2200E,12,22.475,35.7166
164,2016/8/15,8:33:00,22-47.1600S,152-54.2600E,10,22.463,35.7166
165,2016/8/15,8:34:00,22-46.9700S,152-54.3100E,11,22.447,35.7174
166,2016/8/15,8:35:00,22-46.7900S,152-54.3500E,10,22.436,35.7205
167,2016/8/15,8:36:00,22-46.6100S,152-54.3900E,12,22.486,35.7252
168,2016/8/15,8:37:00,22-46.4300S,152-54.4300E,14,22.566,35.7216
169,2016/8/15,8:38:00,22-46.2500S,152-54.4800E,13,22.61,35.7014
170,2016/8/15,8:39:00,22-46.0700S,152-54.5200E,12,22.633,35.6862
171,2016/8/15,8:40:00,22-45.9000S,152-54.5700E,12,22.657,35.6806
172,2016/8/15,8:41:00,22-45.7200S,152-54.6100E,12,22.674,35.6756
173,2016/8/15,8:42:00,22-45.5400S,152-54.6600E,13,22.691,35.673
174,2016/8/15,8:43:00,22-45.3700S,152-54.7000E,14,22.709,35.6709
175,2016/8/15,8:44:00,22-45.1900S,152-54.7500E,15,22.725,35.6702
176,2016/8/15,8:45:00,22-45.0100S,152-54.8000E,13,22.742,35.6655
177,2016/8/15,8:46:00,22-44.8200S,152-54.8500E,11,22.769,35.6677
178,2016/8/15,8:47:00,22-44.6500S,152-54.8900E,13,22.787,35.6671
179,2016/8/15,8:48:00,22-44.4700S,152-54.9400E,16,22.802,35.6664
180,2016/8/15,8:49:00,22-44.2900S,152-55.0000E,16,22.816,35.6673
181,2016/8/15,8:50:00,22-44.1200S,152-55.0500E,16,22.83,35.668
182,2016/8/15,8:51:00,22-43.9500S,152-55.1100E,17,22.832,35.6693
183,2016/8/15,8:52:00,22-43.7700S,152-55.1600E,15,22.836,35.6697
184,2016/8/15,8:53:00,22-43.5800S,152-55.2200E,15,22.842,35.6681
185,2016/8/15,8:54:00,22-43.4000S,152-55.2600E,12,22.848,35.6664
186,2016/8/15,8:55:00,22-43.2200S,152-55.3100E,15,22.859,35.6651
187,2016/8/15,8:56:00,22-43.0500S,152-55.3700E,18,22.86,35.6614
188,2016/8/15,8:57:00,22-42.8700S,152-55.4300E,16,22.863,35.6593
189,2016/8/15,8:58:00,22-42.6900S,152-55.4900E,17,22.867,35.6622
190,2016/8/15,8:59:00,22-42.5200S,152-55.5500E,17,22.872,35.6641
191,2016/8/15,9:00:00,22-42.3500S,152-55.6100E,19,22.876,35.6639
192,2016/8/15,9:01:00,22-42.1700S,152-55.6800E,17,22.879,35.6638
193,2016/8/15,9:02:00,22-42.0100S,152-55.7400E,20,22.881,35.6625
194,2016/8/15,9:03:00,22-41.8400S,152-55.8000E,17,22.883,35.6626
195,2016/8/15,9:04:00,22-41.6800S,152-55.8600E,20,22.885,35.6612
196,2016/8/15,9:05:00,22-41.5200S,152-55.9300E,20,22.879,35.6616
197,2016/8/15,9:06:00,22-41.3600S,152-55.9900E,18,22.879,35.6598
198,2016/8/15,9:07:00,22-41.1800S,152-56.0500E,15,22.878,35.6592
199,2016/8/15,9:08:00,22-41.0100S,152-56.0900E,11,22.882,35.6589
200,2016/8/15,9:09:00,22-40.8400S,152-56.1400E,17,22.879,35.6589
201,2016/8/15,9:10:00,22-40.6800S,152-56.1900E,15,22.871,35.6564
202,2016/8/15,9:11:00,22-40.5100S,152-56.2500E,16,22.869,35.6551
203,2016/8/15,9:12:00,22-40.3300S,152-56.2900E,13,22.869,35.6522
204,2016/8/15,9:13:00,22-40.1500S,152-56.3400E,13,22.869,35.651
205,2016/8/15,9:14:00,22-39.9800S,152-56.3900E,16,22.87,35.6504
206,2016/8/15,9:15:00,22-39.8000S,152-56.4400E,14,22.866,35.6508
207,2016/8/15,9:16:00,22-39.6300S,152-56.4900E,15,22.866,35.6508
208,2016/8/15,9:17:00,22-39.4500S,152-56.5400E,16,22.858,35.6472
209,2016/8/15,9:18:00,22-39.2700S,152-56.5900E,11,22.851,35.6483
210,2016/8/15,9:19:00,22-39.0900S,152-56.6400E,14,22.849,35.6481
211,2016/8/15,9:20:00,22-38.9200S,152-56.6800E,12,22.848,35.6431
212,2016/8/15,9:21:00,22-38.7500S,152-56.7500E,17,22.842,35.6475
213,2016/8/15,9:22:00,22-38.5900S,152-56.8000E,18,22.832,35.6455
214,2016/8/15,9:23:00,22-38.4100S,152-56.8600E,14,22.83,35.6448
215,2016/8/15,9:24:00,22-38.2400S,152-56.9100E,15,22.848,35.6435
216,2016/8/15,9:25:00,22-38.0600S,152-56.9500E,12,22.858,35.6408
217,2016/8/15,9:26:00,22-37.8800S,152-57.0000E,11,22.866,35.6371
218,2016/8/15,9:27:00,22-37.7100S,152-57.0500E,13,22.875,35.6346
219,2016/8/15,9:28:00,22-37.5200S,152-57.1200E,20,22.881,35.6324
220,2016/8/15,9:29:00,22-37.3500S,152-57.1700E,13,22.889,35.6322
221,2016/8/15,9:30:00,22-37.1800S,152-57.2300E,17,22.899,35.6311
222,2016/8/15,9:31:00,22-37.0100S,152-57.2900E,17,22.906,35.6316
223,2016/8/15,9:32:00,22-36.8400S,152-57.3400E,13,22.917,35.6315
224,2016/8/15,9:33:00,22-36.6600S,152-57.3800E,13,22.922,35.6338
225,2016/8/15,9:34:00,22-36.4900S,152-57.4300E,14,22.93,35.6343
226,2016/8/15,9:35:00,22-36.3100S,152-57.4700E,11,22.937,35.6371
227,2016/8/15,9:36:00,22-36.1300S,152-57.5200E,14,22.944,35.6381
228,2016/8/15,9:37:00,22-35.9600S,152-57.5700E,15,22.949,35.6411
229,2016/8/15,9:38:00,22-35.7800S,152-57.6300E,13,22.957,35.6431
230,2016/8/15,9:39:00,22-35.6000S,152-57.6700E,12,22.964,35.6455
231,2016/8/15,9:40:00,22-35.4200S,152-57.7200E,14,22.968,35.6473
232,2016/8/15,9:41:00,22-35.2500S,152-57.7700E,15,22.974,35.6492
233,2016/8/15,9:42:00,22-35.0700S,152-57.8200E,14,22.983,35.6501
234,2016/8/15,9:43:00,22-34.8900S,152-57.8800E,15,22.99,35.6498
235,2016/8/15,9:44:00,22-34.7100S,152-57.9300E,14,22.994,35.6488
236,2016/8/15,9:45:00,22-34.5300S,152-57.9700E,13,22.997,35.6501
237,2016/8/15,9:46:00,22-34.3500S,152-58.0200E,12,23.002,35.6497
238,2016/8/15,9:47:00,22-34.1700S,152-58.0700E,13,23.008,35.6504
239,2016/8/15,9:48:00,22-33.9900S,152-58.1200E,14,23.013,35.65
240,2016/8/15,9:49:00,22-33.7900S,152-58.1700E,15,23.018,35.6482
241,2016/8/15,9:50:00,22-33.6100S,152-58.2300E,16,23.015,35.645
242,2016/8/15,9:51:00,22-33.4400S,152-58.2900E,18,23.017,35.6462
243,2016/8/15,9:52:00,22-33.2600S,152-58.3500E,16,23.023,35.6479
244,2016/8/15,9:53:00,22-33.0800S,152-58.4000E,15,23.04,35.6479
245,2016/8/15,9:54:00,22-32.9000S,152-58.4500E,15,23.059,35.6474
246,2016/8/15,9:55:00,22-32.7200S,152-58.5100E,15,23.085,35.6476
247,2016/8/15,9:56:00,22-32.5400S,152-58.5600E,15,23.113,35.6462
248,2016/8/15,9:57:00,22-32.3600S,152-58.6200E,15,23.132,35.6474
249,2016/8/15,9:58:00,22-32.1800S,152-58.6600E,12,23.145,35.6464
250,2016/8/15,9:59:00,22-32.0000S,152-58.7200E,18,23.151,35.6472
251,2016/8/15,10:00:00,22-31.8200S,152-58.7800E,15,23.147,35.6476
252,2016/8/15,10:01:00,22-31.6400S,152-58.8400E,16,23.153,35.6472
253,2016/8/15,10:02:00,22-31.4600S,152-58.9000E,16,23.16,35.6474
254,2016/8/15,10:03:00,22-31.2900S,152-58.9500E,17,23.175,35.6476
255,2016/8/15,10:04:00,22-31.1100S,152-59.0100E,14,23.177,35.6504
256,2016/8/15,10:05:00,22-30.9300S,152-59.0600E,14,23.169,35.6527
257,2016/8/15,10:06:00,22-30.7500S,152-59.1200E,16,23.16,35.6543
258,2016/8/15,10:07:00,22-30.5800S,152-59.1800E,17,23.155,35.6558
259,2016/8/15,10:08:00,22-30.4000S,152-59.2200E,14,23.154,35.6572
260,2016/8/15,10:09:00,22-30.2200S,152-59.2800E,15,23.154,35.6565
261,2016/8/15,10:10:00,22-30.0300S,152-59.3300E,14,23.151,35.6548
262,2016/8/15,10:11:00,22-29.8500S,152-59.3900E,14,23.148,35.6535
263,2016/8/15,10:12:00,22-29.6700S,152-59.4400E,15,23.151,35.6524
264,2016/8/15,10:13:00,22-29.4900S,152-59.4900E,14,23.154,35.6495
265,2016/8/15,10:14:00,22-29.3000S,152-59.5400E,15,23.155,35.6447
266,2016/8/15,10:15:00,22-29.1300S,152-59.6000E,16,23.163,35.6407
267,2016/8/15,10:16:00,22-28.9400S,152-59.6500E,16,23.199,35.6393
268,2016/8/15,10:17:00,22-28.7700S,152-59.7000E,15,23.264,35.6356
269,2016/8/15,10:18:00,22-28.5900S,152-59.7600E,15,23.36,35.6321
270,2016/8/15,10:19:00,22-28.4100S,152-59.8100E,15,23.428,35.6338
271,2016/8/15,10:20:00,22-28.2400S,152-59.8600E,14,23.47,35.636
272,2016/8/15,10:21:00,22-28.0600S,152-59.9200E,15,23.518,35.6352
273,2016/8/15,10:22:00,22-27.8900S,152-59.9700E,15,23.55,35.6337
274,2016/8/15,10:23:00,22-27.7200S,153-00.0200E,16,23.597,35.6334
275,2016/8/15,10:24:00,22-27.5400S,153-00.0700E,15,23.628,35.6263
276,2016/8/15,10:25:00,22-27.3700S,153-00.1300E,18,23.66,35.6294
277,2016/8/15,10:26:00,22-27.2100S,153-00.1900E,17,23.696,35.628
278,2016/8/15,10:27:00,22-27.0400S,153-00.2500E,17,23.733,35.6304
279,2016/8/15,10:28:00,22-26.8700S,153-00.3000E,15,23.755,35.6296
280,2016/8/15,10:29:00,22-26.7000S,153-00.3500E,12,23.778,35.6304
281,2016/8/15,10:30:00,22-26.5100S,153-00.4000E,14,23.797,35.6228
282,2016/8/15,10:31:00,22-26.3500S,153-00.4500E,15,23.813,35.6286
283,2016/8/15,10:32:00,22-26.1700S,153-00.5100E,15,23.828,35.628
284,2016/8/15,10:33:00,22-26.0000S,153-00.5600E,15,23.846,35.6241
285,2016/8/15,10:34:00,22-25.8300S,153-00.6100E,14,23.865,35.626
286,2016/8/15,10:35:00,22-25.6600S,153-00.6600E,12,23.874,35.6248
287,2016/8/15,10:36:00,22-25.4800S,153-00.7000E,12,23.884,35.6239
288,2016/8/15,10:37:00,22-25.3100S,153-00.7600E,17,23.895,35.625
289,2016/8/15,10:38:00,22-25.1400S,153-00.8100E,17,23.906,35.627
290,2016/8/15,10:39:00,22-24.9700S,153-00.8700E,16,23.912,35.6282
291,2016/8/15,10:40:00,22-24.8000S,153-00.9300E,17,23.919,35.629
292,2016/8/15,10:41:00,22-24.6300S,153-00.9800E,13,23.924,35.6296
293,2016/8/15,10:42:00,22-24.4600S,153-01.0300E,16,23.928,35.6303
294,2016/8/15,10:43:00,22-24.2900S,153-01.0800E,15,23.934,35.6302
295,2016/8/15,10:44:00,22-24.1200S,153-01.1300E,14,23.948,35.6305
296,2016/8/15,10:45:00,22-23.9400S,153-01.1800E,14,23.952,35.6303
297,2016/8/15,10:46:00,22-23.7800S,153-01.2300E,14,23.956,35.6295
298,2016/8/15,10:47:00,22-23.6100S,153-01.2800E,17,23.962,35.629
299,2016/8/15,10:48:00,22-23.4400S,153-01.3400E,17,23.969,35.6284
300,2016/8/15,10:49:00,22-23.2800S,153-01.4000E,18,23.971,35.6278
301,2016/8/15,10:50:00,22-23.1100S,153-01.4600E,17,23.979,35.6287
302,2016/8/15,10:51:00,22-22.9400S,153-01.5100E,18,23.999,35.6292
303,2016/8/15,10:52:00,22-22.7600S,153-01.5700E,18,24.02,35.6298
304,2016/8/15,10:53:00,22-22.5900S,153-01.6300E,14,24.031,35.6296
305,2016/8/15,10:54:00,22-22.4200S,153-01.6700E,13,24.034,35.63
306,2016/8/15,10:55:00,22-22.2500S,153-01.7300E,16,24.038,35.63
307,2016/8/15,10:56:00,22-22.0900S,153-01.7800E,19,24.038,35.6284
308,2016/8/15,10:57:00,22-21.9100S,153-01.8400E,15,24.041,35.6277
309,2016/8/15,10:58:00,22-21.7400S,153-01.8900E,17,24.045,35.6272
310,2016/8/15,10:59:00,22-21.5700S,153-01.9400E,16,24.055,35.6265
311,2016/8/15,11:00:00,22-21.4000S,153-02.0000E,18,24.057,35.6254
312,2016/8/15,11:01:00,22-21.2300S,153-02.0500E,15,24.064,35.6254
313,2016/8/15,11:02:00,22-21.0600S,153-02.1100E,17,24.073,35.6224
314,2016/8/15,11:03:00,22-20.8800S,153-02.1600E,15,24.078,35.6195
315,2016/8/15,11:04:00,22-20.7000S,153-02.2200E,15,24.086,35.6193
316,2016/8/15,11:05:00,22-20.5300S,153-02.2700E,17,24.09,35.6163
317,2016/8/15,11:06:00,22-20.3600S,153-02.3300E,15,24.095,35.6096
318,2016/8/15,11:07:00,22-20.1800S,153-02.3800E,14,24.099,35.6136
319,2016/8/15,11:08:00,22-20.0100S,153-02.4300E,14,24.102,35.6125
320,2016/8/15,11:09:00,22-19.8300S,153-02.4800E,12,24.112,35.6114
321,2016/8/15,11:10:00,22-19.6500S,153-02.5200E,12,24.119,35.6115
322,2016/8/15,11:11:00,22-19.4700S,153-02.5700E,15,24.128,35.6125
323,2016/8/15,11:12:00,22-19.2900S,153-02.6300E,17,24.142,35.6144
324,2016/8/15,11:13:00,22-19.1200S,153-02.6900E,16,24.154,35.6164
325,2016/8/15,11:14:00,22-18.9300S,153-02.7500E,17,24.163,35.6194
326,2016/8/15,11:15:00,22-18.7600S,153-02.8100E,15,24.174,35.6209
327,2016/8/15,11:16:00,22-18.5900S,153-02.8700E,18,24.179,35.6221
328,2016/8/15,11:17:00,22-18.4100S,153-02.9300E,14,24.179,35.6231
329,2016/8/15,11:18:00,22-18.2300S,153-02.9700E,13,24.182,35.6222
330,2016/8/15,11:19:00,22-18.0500S,153-03.0100E,12,24.186,35.6227
331,2016/8/15,11:20:00,22-17.8700S,153-03.0600E,13,24.185,35.62
332,2016/8/15,11:21:00,22-17.7000S,153-03.1100E,15,24.185,35.6203
333,2016/8/15,11:22:00,22-17.5200S,153-03.1700E,17,24.179,35.6202
334,2016/8/15,11:23:00,22-17.3400S,153-03.2200E,14,24.178,35.6191
335,2016/8/15,11:24:00,22-17.1700S,153-03.2800E,16,24.174,35.6186
336,2016/8/15,11:25:00,22-16.9900S,153-03.3300E,18,24.177,35.6172
337,2016/8/15,11:26:00,22-16.8100S,153-03.3900E,16,24.173,35.6182
338,2016/8/15,11:27:00,22-16.6300S,153-03.4500E,16,24.167,35.6198
339,2016/8/15,11:28:00,22-16.4500S,153-03.4900E,13,24.16,35.6197
340,2016/8/15,11:29:00,22-16.2700S,153-03.5400E,13,24.157,35.62
341,2016/8/15,11:30:00,22-16.0900S,153-03.5800E,15,24.16,35.6181
342,2016/8/15,11:31:00,22-15.9100S,153-03.6500E,19,24.162,35.6177
343,2016/8/15,11:32:00,22-15.7400S,153-03.7100E,17,24.169,35.6167
344,2016/8/15,11:33:00,22-15.5600S,153-03.7600E,15,24.182,35.6159
345,2016/8/15,11:34:00,22-15.3900S,153-03.8100E,13,24.194,35.6163
346,2016/8/15,11:35:00,22-15.2000S,153-03.8600E,15,24.205,35.6165
347,2016/8/15,11:36:00,22-15.0200S,153-03.9100E,14,24.213,35.6167
348,2016/8/15,11:37:00,22-14.8500S,153-03.9600E,16,24.219,35.6172
349,2016/8/15,11:38:00,22-14.6700S,153-04.0200E,16,24.227,35.6178
350,2016/8/15,11:39:00,22-14.5000S,153-04.0700E,13,24.228,35.6173
351,2016/8/15,11:40:00,22-14.3200S,153-04.1100E,14,24.227,35.6172
352,2016/8/15,11:41:00,22-14.1500S,153-04.1600E,13,24.229,35.6169
353,2016/8/15,11:42:00,22-13.9700S,153-04.2100E,17,24.231,35.6161
354,2016/8/15,11:43:00,22-13.7900S,153-04.2600E,14,24.23,35.6149
355,2016/8/15,11:44:00,22-13.6200S,153-04.3100E,15,24.229,35.6131
356,2016/8/15,11:45:00,22-13.4400S,153-04.3600E,13,24.232,35.6133
357,2016/8/15,11:46:00,22-13.2600S,153-04.4100E,16,24.234,35.6124
358,2016/8/15,11:47:00,22-13.0900S,153-04.4600E,13,24.233,35.6124
359,2016/8/15,11:48:00,22-12.9100S,153-04.5200E,14,24.236,35.6121
360,2016/8/15,11:49:00,22-12.7300S,153-04.5700E,14,24.233,35.6106
361,2016/8/15,11:50:00,22-12.5500S,153-04.6200E,14,24.234,35.6113
362,2016/8/15,11:51:00,22-12.3700S,153-04.6800E,18,24.232,35.6103
363,2016/8/15,11:52:00,22-12.2000S,153-04.7400E,16,24.233,35.6103
364,2016/8/15,11:53:00,22-12.0200S,153-04.8000E,17,24.232,35.6102
365,2016/8/15,11:54:00,22-11.8400S,153-04.8500E,13,24.232,35.6098
366,2016/8/15,11:55:00,22-11.6500S,153-04.9000E,13,24.228,35.6099
367,2016/8/15,11:56:00,22-11.4700S,153-04.9400E,13,24.228,35.6093
368,2016/8/15,11:57:00,22-11.2700S,153-04.9900E,14,24.226,35.6087
369,2016/8/15,11:58:00,22-11.0900S,153-05.0500E,18,24.224,35.6086
370,2016/8/15,11:59:00,22-10.9100S,153-05.1100E,16,24.221,35.6083
371,2016/8/15,12:00:00,22-10.7500S,153-05.1600E,15,24.221,35.6083
372,2016/8/15,12:01:00,22-10.5800S,153-05.2100E,17,24.218,35.6078
373,2016/8/15,12:02:00,22-10.3900S,153-05.2700E,15,24.217,35.6081
374,2016/8/15,12:03:00,22-10.2100S,153-05.3300E,16,24.203,35.6081
375,2016/8/15,12:04:00,22-10.0200S,153-05.3800E,14,24.192,35.6082
376,2016/8/15,12:05:00,22-09.8400S,153-05.4300E,14,24.172,35.6087
377,2016/8/15,12:06:00,22-09.6600S,153-05.4900E,15,24.149,35.6085
378,2016/8/15,12:07:00,22-09.4800S,153-05.5400E,16,24.124,35.6067
379,2016/8/15,12:08:00,22-09.2900S,153-05.5900E,13,24.1,35.6051
380,2016/8/15,12:09:00,22-09.1000S,153-05.6500E,13,24.08,35.6034
381,2016/8/15,12:10:00,22-08.9200S,153-05.7000E,14,24.063,35.6007
382,2016/8/15,12:11:00,22-08.7300S,153-05.7500E,14,24.032,35.6011